Weather in Duluth

United States     46°47′40″N   92°05′37″W
temp.,
°C
wind,
m/s
gust,
m/s
humid.,
%
clouds,
%
prec.,
mm/h
press.,
hPa
HPBL,
m
18 september, sat
sat1801:00+11wnw12622 0.0 102450
04:00+9ssw1170100 0.0 102451
07:00+9ssw1271100 0.0 102469
10:00+14s245422 0.0 1023347
13:00+19sse254572 0.0 1020589
16:00+20e34505 0.0 1017518
19:00+16ne45730 0.0 101687
22:00+15ese24699 0.0 101663
19 september, sun
sun1901:00+16ese15620 0.0 1014116
04:00+17s37590 0.0 1012159
07:00+17ssw48740 0.0 1011192
10:00+23ssw71568100 0.0 1009547
13:00+28ssw81553100 0.0 1007914
16:00+29ssw7144594 0.0 10051136
19:00+26ssw61351100 0.0 1006455
22:00+25ssw71653100 0.0 1006531
20 september, mon
mon2001:00+24ssw71654100 0.0 1006570
04:00+23ssw61461100 0.0 1005586
07:00+21ssw61371100 0.0 1005571
10:00+22ssw8157796 0.1 1004699
13:00+19sw81496100 10.6 1004617
16:00+15nw61189100 17.6 1007644
19:00+14nnw51283100 17.8 1010859
22:00+14nnw3879100 0.1 1013613
21 september, tue
tue2101:00+12wnw24860 0.1 1015203
04:00+11nw49780 0.0 1017251
07:00+10nnw487714 0.0 1020239
10:00+14nw57580 0.0 1022658
13:00+16nw474849 0.0 10221363
16:00+17nnw774956 0.0 10221378
19:00+12n486223 0.0 1024515
22:00+10nnw37675 0.0 1026284
22 september, wed
wed2201:00+8nw23701 0.0 1026106
04:00+7wnw24730 0.0 1026120
07:00+6w12760 0.0 102771
10:00+12wsw11570 0.0 1027346
13:00+16ssw13420 0.0 10251085
16:00+18sse02385 0.0 10231285
19:00+14sse22580 0.0 102313
22:00+11sw2466100 0.0 102386